CYGFM04

Last updated on Tue Jan 14 2025 00:02:17 GMT+0000 (Coordinated Universal Time)

1 41885U 16078B 25013.41132850 .00016853 00000+0 46520-3 0 9995 2 41885 34.9384 24.5254 0008139 325.5576 34.4614 15.36156935448423
UTC large
Height (km)
Speed (km/s)
/
Latitude / Longitude
Inclination (degrees)
Orbital Period (minutes)
Azimuth
Elevation
Range (km)
Doppler Factor

Next 0 passes for location: London (51.5072 / 0.1276)

Sorry there are no passes over London.